Tracking 27188 objects as of 1-Apr-2023
HD Live streaming from Space Station
objects crossing your sky now

STARLINK-5598

Track STARLINK-5598 now!
10-day predictions
STARLINK-5598 is classified as:


NORAD ID: 55421
Int'l Code: 2023-014AG
Perigee: 364.6 km
Apogee: 368.1 km
Inclination: 70.0 °
Period: 91.7 minutes
Semi major axis: 6737 km
RCS: Unknown
Launch date: January 31, 2023
Source: United States (US)
Launch site: AIR FORCE WESTERN TEST RANGE (AFWTR)
Your satellite tracking list
Your tracking list is empty




NASA's NSSDC Master Catalog

Two Line Element Set (TLE):
1 55421U 23014AG  23091.00343491 -.00001590  00000-0 -11469-4 0  9998
2 55421  69.9976 282.9269 0002605 251.2866 108.8047 15.69904481 10451
Source of the keplerian elements: AFSPC